Sestao, Spain
Current Conditions -  °F | °C
As of 9:30 PM on Monday 26 Jan 2015 (Local Time) from LEBB Reporting Station
Broken Clouds Broken Clouds  
Wind Chill: 50°   Ceiling: 3000
Heat Index: 50°   Visibility: 6mi
Dew Point: 41°   Wind: 0mph
Humidity: 71%   Direction: NA
Pressure: 30.5"   Gusts: NA
Location:  43.31°N, 3.01°W
Report Text: LEBB 262030Z 00000KT 9999 SCT025 BKN030 10/05 Q1033 NOSIG
Loading
Personal Weather Stations






























Interactive Weather Map New forecast layout! Learn more

10-Day Weather Forecast

Advertisements
Track Severe Weather on mobile